Regional Weather Roundup
Issued by NWS

Home | Current Version | Previous Version | Graphics & Text | Print | Product List | Glossary On
Versions: 1 2 3 4 5 6 7 8 9 10 11 12 13 14 15 16 17 18 19 20 21 22 23 24 25 26 27 28 29 30 31 32 33 34 35 36 37 38 39 40 41 42 43 44 45 46 47 48 49 50
000
ASUS43 KMPX 011310
RWRMN
WEATHER ROUNDUP FOR MINNESOTA
NATIONAL WEATHER SERVICE TWIN CITIES/CHANHASSEN MN
700 AM CST SUN FEB 01 2015


NOTE: "FAIR" INDICATES FEW OR NO CLOUDS BELOW 12,000 FEET WITH NO
SIGNIFICANT WEATHER AND/OR OBSTRUCTIONS TO VISIBILITY. N/A MEANS
CURRENT SKY AND/OR WEATHER CONDITIONS ARE NOT AVAILABLE.

MNZ060>063-068>070-011400-
   Twin Cities Metro

CITY           SKY/WX    TMP DP  RH WIND       PRES   REMARKS
TWIN CITIES    FLURRIES  15   6  67 NE15      30.20R WCI   0
ST PAUL        CLOUDY    15   5  64 NE18G28   30.23R WCI  -2
CRYSTAL        CLOUDY    15   6  67 N12G18    30.20R WCI   2
BLAINE         CLOUDY    16   5  62 NE16G26   30.21R WCI   0
LAKEVILLE      LGT SNOW  12   9  85 NE16G25   30.17R WCI  -4
EDEN PRAIRIE   CLOUDY    15   6  67 NE17G23   30.18R HAZE    WCI  -1
SOUTH ST PAUL  CLOUDY    15   9  76 NE9G17    30.21R HAZE    WCI   3
LAKE ELMO      CLOUDY    14   5  67 NE16G25   30.21R WCI  -2
$$
MNZ001>005-007-008-013>017-022>024-027-028-011400-
   Northwest Minnesota

CITY           SKY/WX    TMP DP  RH WIND       PRES   REMARKS
BEMIDJI        PTCLDY   -13 -18  77 N5        30.41S WCI -25
HALLOCK        PTCLDY   -15 -22  70 N7        30.58S WCI -31
ROSEAU         FAIR     -17 -24  70 N3        30.53S
WARROAD        MOCLDY   -18 -27  63 NW3       30.51S
THIEF RVR FALL PTCLDY   -13 -18  77 N9        30.50S WCI -31
CROOKSTON      FAIR     -11 -17  77 N13       30.55S WCI -32
FOSSTON        PTCLDY   -15 -18  84 N10       30.45S WCI -35
DETROIT LAKES  PTCLDY    -4 -13  65 NE8       30.38R WCI -19
MOORHEAD       PTCLDY    -4 -11  71 N17G24    30.46S WCI -26
PARK RAPIDS    PTCLDY    -6 -16  61 N12       30.35S WCI -25
MAHNOMEN       PTSUNNY   -8 -15  72 NE14      30.42S WCI -29
$$
MNZ006-009>011-018-025>026-011400-
   North Central Minnesota

CITY           SKY/WX    TMP DP  RH WIND       PRES   REMARKS
BAUDETTE       MOCLDY   -17 -22  78 N6        30.49S WCI -32
FLAG ISLAND    MOCLDY   -22 -27  76 NW9       30.51S WCI -42
INTL FALLS     PTCLDY   -18 -24  74 N6        30.46F HAZE    WCI -33
WASKISH        MOCLDY   -17 -22  76 CALM      30.46S
BIG FORK       PTCLDY   -15 -20  76 N5        30.41S WCI -27
LONGVILLE      CLOUDY    -6 -15  65 N6        30.36S WCI -18
GRAND RAPIDS   CLOUDY    -8 -17  65 N7        30.34S WCI -22
CRANE LAKE     PTCLDY   -29 -35  75 CALM      30.48S
ORR            PTCLDY   -20 -27  69 CALM      30.39S
COOK           PTCLDY   -17 -22  76 CALM      30.41R
WALKER         FAIR     -10 -17  72 N5        30.39S WCI -22
$$
MNZ012-019>021-037-011400-
   Northeast Minnesota

CITY           SKY/WX    TMP DP  RH WIND       PRES   REMARKS
DULUTH         MOCLDY    -2  -9  72 N9        30.30R WCI -18
ELY            PTCLDY   -17 -20  83 CALM      30.38S
HIBBING        PTCLDY    -9 -18  64 N8        30.37R WCI -25
EVELETH        MOCLDY    -8 -15  71 NE8       30.37S WCI -23
DULUTH HARBOR    N/A     10 N/A N/A NE29      30.37R WCI -11
TWO HARBORS    MOCLDY     1  -6  71 N7        30.33R WCI -11
SILVER BAY     MOCLDY    -4 -15  59 CALM      30.36R
GRAND MARAIS     N/A     -6 -18  56 VRB7      30.45F WCI -20
G MARAIS ARPRT MOCLDY   -15 -24  64 N9        30.29F WCI -33
$$
MNZ029>031-032-039>041-046>048-054>057-064-011400-
   West Central Minnesota

CITY           SKY/WX    TMP DP  RH WIND       PRES   REMARKS
FERGUS FALLS   PTCLDY     0 -13  55 NE10      30.40R WCI -17
WHEATON        CLOUDY    -2  -9  71 N22       30.39R WCI -26
MORRIS         MOCLDY     5  -4  66 N16G22    30.30R WCI -14
ALEXANDRIA     PTCLDY     2  -7  66 NE17      30.28R WCI -18
ELBOW LAKE     FAIR       1  -7  69 N13       30.33R WCI -17
WADENA         MOCLDY    -4 -11  71 N14       30.32S WCI -24
GLENWOOD       MOCLDY     3  -4  72 N17G23    30.27R WCI -17
APPLETON       CLOUDY     9   0  66 N20       30.29R WCI -11
BENSON         CLOUDY     7  -2  66 NE15G22   30.27S WCI -11
ORTONVILLE     PTCLDY     3  -6  66 N21G26    30.32R WCI -18
MADISON        CLOUDY    10   1  67 N20G28    30.29R WCI  -8
WILLMAR        FAIR      10   1  67 N18G26    30.24R WCI  -8
$$
MNZ033>034-036-042>043-049>051-058-059-011400-
   Central Minnesota

CITY           SKY/WX    TMP DP  RH WIND       PRES   REMARKS
ST CLOUD       CLOUDY     6  -2  69 N12G23    30.26R WCI  -9
SAUK CENTRE    FAIR       4  -4  69 N16       30.27S WCI -15
PAYNESVILLE    CLOUDY     4  -3  72 N20G25    30.24R WCI -16
AITKIN         PTCLDY     1  -9  60 N10       30.32S WCI -14
PINE RIVER     MOCLDY    -4 -11  71 N13G18    30.37R WCI -23
BRAINERD       MOCLDY    -1  -9  68 N12       30.33R WCI -18
STAPLES        PTCLDY    -2  -9  71 N9        30.32S WCI -18
LONG PRAIRIE   FAIR       1  -6  71 N14       30.29R WCI -17
LITTLE FALLS   MOCLDY     3  -6  66 N6        30.31R WCI  -8
LITCHFIELD     CLOUDY    10   3  72 N18G24    30.22R WCI  -8
BUFFALO        CLOUDY    11   4  73 N18       30.23R WCI  -7
MAPLE LAKE     CLOUDY    12   6  76 N15G23    30.24R WCI  -4
$$
MNZ037-044-045-052-053-011400-
   East Central Minnesota

CITY           SKY/WX    TMP DP  RH WIND       PRES   REMARKS
PRINCETON      CLOUDY    10   3  72 N12G17    30.25R WCI  -4
MORA           CLOUDY     7   0  72 N7        30.29S WCI  -5
CAMBRIDGE      CLOUDY    10   1  67 N13       30.24R WCI  -5
RUSH CITY      CLOUDY    10   4  78 N12       30.26S WCI  -5
MOOSE LAKE     MOCLDY     1  -6  71 N9        30.30S WCI -14
HINCKLEY         N/A      7   1  78 N12G20    30.29R WCI  -9
CLOQUET        MOCLDY    -2  -8  78 N9        30.30S WCI -18
MCGREGOR       MOCLDY     0  -8  71 N9        30.34R WCI -16
$$
MNZ071>073-080-081-089-090-097-098-011400-
   Southwest Minnesota

CITY           SKY/WX    TMP DP  RH WIND       PRES   REMARKS
MONTEVIDEO     CLOUDY    10   1  67 NE24      30.26R WCI -10
GRANITE FALLS  CLOUDY    11   4  71 N15G24    30.25R WCI  -5
CANBY          CLOUDY     7   1  76 N18G25    30.27R WCI -12
MARSHALL       CLOUDY    10   1  67 N24G32    30.21R WCI -10
REDWOOD FALLS  LGT SNOW  13   8  81 N10G21    30.20R WCI   0
OLIVIA         MOCLDY    10   5  79 N20G26    30.21R WCI  -8
PIPESTONE      LGT SNOW   9   3  78 N15G25    30.12R WCI  -8
WINDOM         LGT SNOW  14  10  85 N25G32    30.10R WCI  -5
WORTHINGTON    CLOUDY    27   9  46 N20G32    30.07R WCI  13
JACKSON        LGT SNOW  18  12  79 N26       30.06R WCI  -1
TRACY          LGT SNOW  12   9  87 N22G28    30.18R WCI  -7
SLAYTON        LGT SNOW  11   8  87 N21       30.12R WCI  -8
$$
MNZ065>067-074>077-082>085-091>093-011400-
   South Central Minnesota

CITY           SKY/WX    TMP DP  RH WIND       PRES   REMARKS
MANKATO        CLOUDY    16  10  79 NE21      30.12R WCI  -2
NEW ULM        LGT SNOW  14  10  85 NE18      30.15R VSB 1   WCI  -3
ST JAMES       LGT SNOW  16  12  86 N21       30.13R WCI  -2
FAIRMONT       CLOUDY    16  10  79 N18G28    30.05R WCI  -1
GLENCOE        LGT SNOW  15  10  81 N12G22    30.18R WCI   1
FARIBAULT      LGT SNOW  14  10  85 N14G24    30.14R WCI  -1
OWATONNA       LGT SNOW  16  10  79 NE17G23   30.10R WCI   0
WASECA         LGT SNOW  18  14  86 NE24G30   30.11R WCI   0
ALBERT LEA     LGT SNOW  18  16  93 NE20G28   30.03R VSB 1   WCI   1
$$
MNZ078>079-086>088-094>096-011400-
   Southeast Minnesota

CITY           SKY/WX    TMP DP  RH WIND       PRES   REMARKS
ROCHESTER      LGT SNOW  16  12  84 NE18      30.06R FOG     WCI   0
RED WING       LGT SNOW  14   9  79 E12       30.17R WCI   0
STANTON        LGT SNOW  15  11  83 NE17      30.14R WCI  -1
DODGE CENTER   LGT SNOW  16  12  86 NE16      30.06R WCI   0
WINONA         LGT SNOW  19  14  79 E6        30.16R WCI  11
AUSTIN         LGT SNOW  18  14  86 NE17G25   30.02R WCI   2
PRESTON          N/A     15  12  88 NE18G25   30.05R WCI  -1
$$
ABBREVIATIONS USED IN REMARKS
   TC - TEMPERATURES IN CELSIUS
  WCI - WIND CHILL INDEX
   HX - HEAT INDEX
  VSB - VISIBILITY
$$



USA.gov is the U.S. government's official web portal to all federal, state and local government web resources and services.